Погода в Лиски

Погода в Лиски : погода сейчас, прогноз погоды и архив. Всё, что Вы хотите узнать о погоде в Лиски!

Поиск расширенной информации на нашем сайте:

Другие новости

Новости СМИ2

Главная страница сайта

Новости сайта

03.07.2017

Напоминаем, что на нашем специализированном сайте Метеоцентр.Азия вы можете получить высокодетализированные автоматические прогнозы погоды по пунктам России, СНГ и мира в авиационном формате (включающие направление и скорость ветра, видимость, явления погоды, количество и форму облачности, нижнюю и верхнюю границу облачности).


Погода в Лиски - сегодня

Время (UTC), дата Ветер
(°,м/с) 
Видим.   Явления Облачность Т
(°С)
Тd
(°С)
f(%) Тe
(°С)
Pmin
(гПа)
dP
(гПа)
Po
(мм)
O2
(г/м3)
Тmin Tmax R s Состояние
почвы
12 17.10.18 280 (З) 20000 м    ясно 
+22.9 +6 33 +23  1025.7  -1.3  759  281           
15 17.10.18 350 (С) 20000 м    ясно 
+16.4 +6.2 51 +18  1025.5  -0.5  759  287    +23.1       
18 17.10.18 040 (СВ) 10 км    ясно 
+9.6 +5.9 78 +11  1026  0.2  759  294           
21 17.10.18 020 (С) 10 км    ясно 
+8.1 +5.9 86 +9  1026.2  0.1  759  296           
00 18.10.18 тихо ()   10 км    ясно 
+6.1 +4.5 89 +6  1026.5  0.2  759  299           
06 18.10.18 тихо ()   10 км    ясно 
+8.2 +4.1 75 +8  1026.6  0.4  759  296  +3.4         
09 18.10.18 210 (ЮЗ) 20000 м    ясно 
+19.8 +5.7 40 +21  1025.5  -0.5  759  284           
12 18.10.18 140 (ЮВ) 20000 м    ясно 
+21.5 +4 32 +22  1024  -1.4  758  283           
15 18.10.18 тихо ()   20000 м    ясно 
+14.8 +6.3 57 +15  1023.6  -0.8  757  288    +21.9       
18 18.10.18 030 (СВ) 10 км    ясно 
+7.8 +4.4 79 +9  1023.8  -0.1  757  296           
21 18.10.18 030 (СВ) 10 км    ясно 
+5.2 +3.3 88 +6  1023.9  -0.1  757  299           
00 19.10.18 тихо ()   10 км    ясно 
+3.9 +2.4 90 +4  1023.5  -0.3  757  300           
06 19.10.18 тихо ()   10 км    ясно 
+9.6 +4.7 71 +10  1022.4  0.1  756  294  +1.8         
09 19.10.18 140 (ЮВ) 20000 м    ясно 
+18.2 +7.1 48 +19  1021  -1.1  755  284           
12 19.10.18 190 (Ю) 20000 м    ясно 
+20.6 +4 34 +21  1019.1  -1.8  754  282           
18 19.10.18 190 (Ю) 10 км    ясно 
+9.6 +4.7 71 +11  1017.8  -0.5  753  292           
21 19.10.18 тихо ()   10 км    ясно 
+6.5 +4.2 85 +7  1017.5  -0.5  753  296           
00 20.10.18 тихо ()   10 км    3/0 верхняя 
[Ci fib]
+5.1 +3.4 89 +5    -0.7  752  297           
06 20.10.18 тихо ()   10 км    8/3 600 м верхняя 
[Sc|Ci fib]
+6.4 +4.1 85 +6  1016.7  0.5  752  295  +2.6         
09 20.10.18 040 (СВ) 20000 м    3/0 верхняя 
[Ci fib]
+16.5 +7.6 56 +18  1016.4  0.2  752  285           
12 20.10.18 070 (В) 20000 м    3/0 верхняя 
[Ci fib]
+18.3 +7.5 49 +20  1015.7  -0.6  752  283           
18 20.10.18 040 (СВ) 10 км    8/8 800 м 
[Sc]
+11.3 +6.7 73 +12  1017.2  753  290           
21 20.10.18 010 (С) 10 км    10/10 800 м 
[Sc]
+9.7 +6 78 +10  1017.7  0.4  753  292           
06 21.10.18 040 (СВ) 20000 м    10/10 800 м 
[Sc]
+9.6 +3.4 65 +9  1019.5  1.1  754  293           
09 21.10.18 030 (СВ) 20000 м    10/10 800 м 
[Sc]
+11.1 +3.7 60 +11  1020.4  0.9  755  292           
Время (UTC), дата Ветер
(°,м/с) 
Видим.   Явления Облачность Т
(°С)
Тd
(°С)
f(%) Тe
(°С)
Pmin
(гПа)
dP
(гПа)
Po
(мм)
O2
(г/м3)
Тmin Tmax R s Состояние
почвы

Для получения пояснительной информации подведите курсор к названию столбца.

ПОГОДА в Лиски - архив

Всё, что Вы хотите узнать о погоде в Лиски - удобно и подробно!

Выберите нужную дату (начиная с 1 января 2015* года) и нажмите кнопку "Найти".
Будут отображены архивные сводки погоды по пункту Лиски, начиная с указанной даты.


Отображать данные в формате CSV (для использования в таблицах Excel)


Внимание! Наш архив погоды предназначен исключительно для личного некоммерческого использования в познавательных целях. Если Вам необходимы официальные справки о состоянии погоды (для производственных, юридических, коммерческих и т.п. целей), обращайтесь в органы Росгидромета.

*Примечание: данная дата относится к архиву по метеостанциям СССР (Россия, СНГ, Балтия).
Архив по метеостанциям Зарубежной Европы и Азии (кроме Китая) хранится 10 дней, по другим регионам земного шара (Китай, Африка, Америка, Австралия, Океания) - 1 день.

Лиски - район местоположения метеостанции


Название, широта, долгота, высота метеостанции:
Лиски 51°ш. 39.5°д. 115 м над ур. моря [Российская Федерация]

Дополнительная информация

В oтличие oт бoльшинства пoгoдных сайтoв мы публикуем пoдрoбную метеoинфoрмацию в детальнoм прoфессиoнальнoм фoрмате.

Характеристики температуры и влажнoсти вoздуха измеряются на высoте 2 м в тени вдали oт зданий и деревьев.
Скoрoсть ветра измеряется на высoте 10 м (на урoвне рoста челoвека скoрoсть ветра ниже в 1.5-2 раза). Если метеoстанция нахoдится в гoрoде или в лесу, тo скoрoсть ветра занижена на 2-4 м/с пo сравнению с oткрытым местoм. Скoрoсть ветра над акватoриями крупных рек и oзёр, а также на вершинах хoлмoв на 2-5 м/с выше, чем в oбычных услoвиях.
Атмoсфернoе давление в разных тoчках местнoсти мoжет значительнo oтличаться oт давления на метеoстанции, в зависимoсти oт услoвий рельефа (при пoдъёме на 10 м давление пoнижается примернo на 1 мм рт.ст.).